Midland, MI

1:30 PM EDT on June 23, 2017 (GMT -0400)
Barstow

Weather History for KIKW - October, 2013

Change the Weather History Date:

Tuesday, October 1, 2013

  Actual Average (KMBS) Record (KMBS)
Temperature  
Mean Temperature 62 °F -  
Max Temperature 77 °F 64 °F 86 °F (2002)
Min Temperature 46 °F 41 °F 28 °F (2003)
Degree Days  
Heating Degree Days 4    
Growing Degree Days 12 (Base 50)    
Moisture  
Dew Point 56 °F    
Average Humidity 83    
Maximum Humidity 100    
Minimum Humidity 56    
Precipitation  
Precipitation 0.00 in - - ()
Sea Level Pressure  
Sea Level Pressure 29.91 in    
Wind  
Wind Speed 5 mph (SW)    
Max Wind Speed 20 mph    
Max Gust Speed 28 mph    
Visibility 8 miles    
Events Fog    
Averages and records for this station are not official NWS values.
T = Trace of Precipitation, MM = Missing Value Source: NWS Daily Summary

Daily Weather History Graph

Daily Weather History Graph

Search for Another Location

Airport or City:

Trip Planner

Search our weather history database for the weather conditions in past years. The results will help you decide how hot, cold, wet, or windy it might be!

Date:

Astronomy

Oct. 01, 2013 Rise Set
Actual Time 7:34 AM EDT 7:17 PM EDT
Civil Twilight 7:06 AM EDT 7:46 PM EDT
Nautical Twilight 6:32 AM EDT 8:19 PM EDT
Astronomical Twilight 5:59 AM EDT 8:52 PM EDT
Moon 4:02 AM EDT (10/1) 5:25 PM EDT (10/1)
Length of Visible Light 12h 39m
Length of Day
11h 42m
Waning Crescent, 12% of the Moon is Illuminated
Oct 1
Waning Crescent
Oct 4
New
Oct 11
First Quarter
Oct 18
Full
Oct 26
Last Quarter

Hourly Weather History & Observations

Time (EDT) Temp. Dew Point Humidity Pressure Visibility Wind Dir Wind Speed Gust Speed Precip Events Conditions
12:13 AM 47.5 °F 47.5 °F 100% 29.93 in 2.0 mi Calm Calm - N/A   Clear
12:34 AM 48.9 °F 48.9 °F 100% 29.93 in 10.0 mi Calm Calm - N/A   Clear
12:53 AM 47.3 °F 47.3 °F 100% 29.93 in 0.8 mi Calm Calm - N/A   Mist
1:13 AM 47.5 °F 47.5 °F 100% 29.93 in 0.8 mi Calm Calm - N/A   Mist
1:34 AM 46.9 °F 46.9 °F 100% 29.93 in 1.2 mi Calm Calm - N/A   Mist
1:53 AM 46.9 °F 46.9 °F 100% 29.93 in 0.8 mi Calm Calm - N/A   Mist
2:13 AM 47.3 °F 47.3 °F 100% 29.93 in 1.0 mi Calm Calm - N/A   Mist
2:33 AM 47.1 °F 47.1 °F 100% 29.94 in 7.0 mi Calm Calm - N/A   Clear
2:53 AM 46.4 °F 46.4 °F 100% 29.94 in 0.2 mi Calm Calm - N/A Fog Fog
3:14 AM 46.9 °F 46.9 °F 100% 29.94 in 10.0 mi Calm Calm - N/A   Clear
3:34 AM 46.6 °F 46.6 °F 100% 29.94 in 5.0 mi Calm Calm - N/A   Clear
3:53 AM 49.1 °F 49.1 °F 100% 29.94 in 10.0 mi Calm Calm - N/A   Clear
4:13 AM 47.3 °F 47.3 °F 100% 29.94 in 10.0 mi Calm Calm - N/A   Clear
4:33 AM 47.3 °F 47.3 °F 100% 29.94 in 10.0 mi Calm Calm - N/A   Clear
4:53 AM 47.3 °F 47.3 °F 100% 29.93 in 10.0 mi Calm Calm - N/A   Clear
5:13 AM 49.1 °F 49.1 °F 100% 29.93 in 10.0 mi Calm Calm - N/A   Clear
5:33 AM 47.3 °F 47.3 °F 100% 29.94 in 7.0 mi Calm Calm - N/A   Clear
5:54 AM 46.8 °F 46.8 °F 100% 29.94 in 4.0 mi Calm Calm - N/A   Clear
6:14 AM 46.2 °F 46.2 °F 100% 29.94 in 4.0 mi Calm Calm - N/A   Clear
6:33 AM 48.4 °F 48.4 °F 100% 29.94 in 5.0 mi Calm Calm - N/A   Clear
6:54 AM 48.4 °F 48.4 °F 100% 29.94 in 5.0 mi Calm Calm - N/A   Clear
7:13 AM 48.4 °F 48.4 °F 100% 29.93 in 5.0 mi Calm Calm - N/A   Clear
7:33 AM 50.9 °F 50.9 °F 100% 29.93 in 5.0 mi Calm Calm - N/A   Clear
7:54 AM 52.7 °F 52.7 °F 100% 29.94 in 5.0 mi Calm Calm - N/A   Clear
8:13 AM 54.3 °F 53.8 °F 98% 29.94 in 5.0 mi South 3.5 mph - N/A   Clear
8:34 AM 55.4 °F 54.5 °F 97% 29.93 in 5.0 mi South 4.6 mph - N/A   Clear
8:53 AM 56.7 °F 55.6 °F 96% 29.93 in 7.0 mi SSW 6.9 mph - N/A   Clear
9:13 AM 57.4 °F 56.3 °F 96% 29.94 in 7.0 mi SSW 3.5 mph - N/A   Clear
9:34 AM 60.3 °F 58.3 °F 93% 29.94 in 7.0 mi SSW 4.6 mph - N/A   Clear
9:53 AM 63.0 °F 60.1 °F 90% 29.94 in 7.0 mi SSW 6.9 mph - N/A   Clear
10:14 AM 65.1 °F 61.0 °F 86% 29.93 in 10.0 mi SSW 9.2 mph - N/A   Clear
10:34 AM 67.3 °F 61.7 °F 82% 29.93 in 10.0 mi SSW 10.4 mph - N/A   Clear
10:53 AM 69.1 °F 62.4 °F 79% 29.93 in 10.0 mi SSW 11.5 mph 17.3 mph N/A   Clear
11:14 AM 69.8 °F 62.2 °F 77% 29.93 in 10.0 mi SSW 12.7 mph 19.6 mph N/A   Scattered Clouds
11:34 AM 70.0 °F 62.1 °F 76% 29.93 in 7.0 mi SW 15.0 mph 23.0 mph N/A   Scattered Clouds
11:53 AM 70.5 °F 62.4 °F 75% 29.92 in 7.0 mi SSW 12.7 mph 19.6 mph N/A   Scattered Clouds
12:14 PM 70.2 °F 61.2 °F 73% 29.92 in 7.0 mi SSW 13.8 mph 18.4 mph N/A   Scattered Clouds
12:34 PM 72.1 °F 61.7 °F 70% 29.92 in 7.0 mi WSW 11.5 mph 18.4 mph N/A   Scattered Clouds
12:53 PM 71.8 °F 61.7 °F 70% 29.91 in 7.0 mi SW 11.5 mph 18.4 mph N/A   Mostly Cloudy
1:14 PM 73.6 °F 61.7 °F 66% 29.90 in 7.0 mi SW 15.0 mph 27.6 mph N/A   Scattered Clouds
1:34 PM 75.4 °F 61.7 °F 62% 29.89 in 7.0 mi SSW 16.1 mph 23.0 mph N/A   Scattered Clouds
1:53 PM 75.4 °F 61.0 °F 61% 29.89 in 10.0 mi SSW 16.1 mph 25.3 mph N/A   Scattered Clouds
2:14 PM 76.6 °F 60.8 °F 58% 29.88 in 10.0 mi SW 15.0 mph 23.0 mph N/A   Mostly Cloudy
2:34 PM 76.6 °F 61.3 °F 59% 29.87 in 7.0 mi SW 16.1 mph 24.2 mph N/A   Overcast
2:53 PM 77.0 °F 60.4 °F 56% 29.87 in 10.0 mi SW 19.6 mph 25.3 mph N/A   Mostly Cloudy
3:14 PM 75.6 °F 60.3 °F 59% 29.87 in 10.0 mi WSW 17.3 mph 27.6 mph N/A   Scattered Clouds
3:34 PM 76.3 °F 60.6 °F 58% 29.87 in 10.0 mi SW 17.3 mph 23.0 mph N/A   Mostly Cloudy
3:54 PM 76.3 °F 60.4 °F 58% 29.87 in 10.0 mi WSW 17.3 mph 26.5 mph N/A   Scattered Clouds
4:14 PM 75.6 °F 61.0 °F 60% 29.87 in 7.0 mi SW 17.3 mph 24.2 mph N/A   Mostly Cloudy
4:33 PM 75.4 °F 60.8 °F 60% 29.87 in 10.0 mi SSW 17.3 mph - N/A   Mostly Cloudy
4:54 PM 75.7 °F 61.0 °F 60% 29.85 in 7.0 mi SW 13.8 mph 21.9 mph N/A   Scattered Clouds
5:14 PM 75.6 °F 60.4 °F 59% 29.85 in 10.0 mi SW 19.6 mph 25.3 mph N/A   Scattered Clouds
5:34 PM 74.7 °F 59.9 °F 60% 29.86 in 10.0 mi SW 15.0 mph 23.0 mph N/A   Clear
5:54 PM 73.6 °F 60.4 °F 63% 29.87 in 7.0 mi SW 16.1 mph 21.9 mph N/A   Scattered Clouds
6:13 PM 72.5 °F 60.3 °F 65% 29.87 in 10.0 mi WSW 9.2 mph 24.2 mph N/A   Scattered Clouds
6:34 PM 71.2 °F 60.8 °F 69% 29.87 in 7.0 mi WSW 11.5 mph - N/A   Scattered Clouds
6:54 PM 70.7 °F 60.6 °F 70% 29.88 in 10.0 mi SW 15.0 mph 19.6 mph N/A   Mostly Cloudy
7:13 PM 70.2 °F 60.1 °F 70% 29.88 in 5.0 mi WSW 13.8 mph 20.7 mph N/A   Haze
7:34 PM 68.9 °F 59.9 °F 73% 29.88 in 10.0 mi SW 11.5 mph 16.1 mph N/A   Scattered Clouds
7:54 PM 68.4 °F 60.4 °F 76% 29.88 in 10.0 mi SW 11.5 mph 16.1 mph N/A   Scattered Clouds
8:13 PM 68.2 °F 60.6 °F 77% 29.88 in 10.0 mi SW 6.9 mph - N/A   Clear
8:34 PM 66.9 °F 60.3 °F 79% 29.89 in 10.0 mi SW 4.6 mph - N/A   Clear
8:54 PM 66.6 °F 60.6 °F 81% 29.89 in 10.0 mi SW 4.6 mph - N/A   Clear
9:13 PM 66.6 °F 60.8 °F 82% 29.89 in 10.0 mi SSW 5.8 mph - N/A   Clear
9:34 PM 66.2 °F 60.8 °F 83% 29.89 in 10.0 mi SSW 8.1 mph - N/A   Clear
9:54 PM 66.0 °F 60.6 °F 83% 29.89 in 10.0 mi SSW 5.8 mph - N/A   Clear
10:13 PM 65.3 °F 60.4 °F 84% 29.89 in 10.0 mi SSW 8.1 mph - N/A   Clear
10:34 PM 64.8 °F 60.3 °F 85% 29.89 in 10.0 mi SSW 5.8 mph - N/A   Clear
10:54 PM 64.4 °F 60.6 °F 88% 29.89 in 10.0 mi SW 5.8 mph - N/A   Clear
11:14 PM 64.2 °F 60.8 °F 89% 29.89 in 10.0 mi SW 5.8 mph - N/A   Clear
11:34 PM 63.9 °F 61.2 °F 91% 29.89 in 10.0 mi SW 5.8 mph - N/A   Clear
11:54 PM 63.9 °F 61.5 °F 92% 29.89 in 10.0 mi WSW 4.6 mph - N/A   Clear